Zurück zum Katalog

GSAT 6A

AktivKommunikationMEO
NORAD 43241·PAYLOAD·🇮🇳 India

Gestartet Mar 29, 2018 von Satish Dhawan Space Centre

Loading…

Nächste Überflüge (nächste 24 Stunden)

TLE

AktuellSource: Space-Track

Epoche: Sep 14, 2026, 18:37 UTC

1 43241U 18027A   26257.77631624 -.00000119  00000-0  00000-0 0  9992
2 43241   3.4333  79.5105 1322379 116.7223 264.9606  1.19316511 36930

Verfolge GSAT 6A in Echtzeit mit AllMySat

Download on the App Store